Chillicothe, MO

8:55 PM CST on November 24, 2017 (GMT -0600)
Chillicothe

Weather History for KCDJ - October, 2011

Change the Weather History Date:

Saturday, October 15, 2011

  Actual Average (KIRK) Record (KIRK)
Temperature  
Mean Temperature 57 °F -  
Max Temperature 73 °F 67 °F 89 °F (1938)
Min Temperature 41 °F 45 °F 29 °F (1937)
Degree Days  
Heating Degree Days 8    
Growing Degree Days 7 (Base 50)    
Moisture  
Dew Point 34 °F    
Average Humidity 45    
Maximum Humidity 73    
Minimum Humidity 22    
Precipitation  
Precipitation 0.00 in - - ()
Sea Level Pressure  
Sea Level Pressure 30.01 in    
Wind  
Wind Speed 3 mph (SSW)    
Max Wind Speed 14 mph    
Max Gust Speed 20 mph    
Averages and records for this station are not official NWS values.
T = Trace of Precipitation, MM = Missing Value Source: NWS Daily Summary

Daily Weather History Graph

Daily Weather History Graph

Search for Another Location

Airport or City:

Trip Planner

Search our weather history database for the weather conditions in past years. The results will help you decide how hot, cold, wet, or windy it might be!

Date:

Astronomy

Oct. 15, 2011 Rise Set
Actual Time 7:24 AM CDT 6:35 PM CDT
Civil Twilight 6:57 AM CDT 7:02 PM CDT
Nautical Twilight 6:25 AM CDT 7:33 PM CDT
Astronomical Twilight 5:54 AM CDT 8:04 PM CDT
Moon 8:33 PM CDT (10/15) 10:48 AM CDT (10/15)
Length of Visible Light 12h 05m
Length of Day
11h 10m
Waning Gibbous, 89% of the Moon is Illuminated
Oct 15
Waning Gibbous
Oct 19
Last Quarter
Oct 26
New
Nov 2
First Quarter
Nov 10
Full

Hourly Weather History & Observations

Time (CDT) Temp. Dew Point Humidity Pressure Visibility Wind Dir Wind Speed Gust Speed Precip Events Conditions
12:52 AM 50.0 °F 30.9 °F 48% 30.04 in - NW 5.8 mph - N/A   Unknown
1:52 AM 48.9 °F 30.9 °F 50% 30.05 in - Calm Calm - N/A   Unknown
2:52 AM 46.0 °F 32.0 °F 58% 30.06 in - Calm Calm - N/A   Unknown
3:52 AM 44.1 °F 32.0 °F 63% 30.06 in - Calm Calm - N/A   Unknown
4:52 AM 43.0 °F 32.0 °F 65% 30.08 in - Calm Calm - N/A   Unknown
5:52 AM 42.1 °F 33.1 °F 70% 30.09 in - Calm Calm - N/A   Unknown
6:52 AM 41.0 °F 33.1 °F 73% 30.10 in - Calm Calm - N/A   Unknown
7:52 AM 41.0 °F 33.1 °F 73% 30.10 in - Calm Calm - N/A   Unknown
8:52 AM 48.0 °F 36.0 °F 63% 30.12 in - Calm Calm - N/A   Unknown
9:52 AM 53.1 °F 36.0 °F 52% 30.12 in - SW 6.9 mph - N/A   Unknown
10:52 AM 61.0 °F 37.0 °F 41% 30.11 in - Variable 3.5 mph - N/A   Unknown
11:52 AM 64.9 °F 34.0 °F 32% 30.08 in - Variable 3.5 mph - N/A   Unknown
12:52 PM 66.9 °F 30.0 °F 25% 30.06 in - SSW 8.1 mph - N/A   Unknown
1:52 PM 69.1 °F 28.9 °F 22% 30.02 in - Variable 6.9 mph - N/A   Unknown
2:52 PM 72.0 °F 30.9 °F 22% 30.00 in - Variable 5.8 mph - N/A   Unknown
3:52 PM 73.0 °F 32.0 °F 22% 29.95 in - SSW 9.2 mph - N/A   Unknown
4:52 PM 72.0 °F 34.0 °F 25% 29.94 in - South 13.8 mph 19.6 mph N/A   Unknown
5:52 PM 70.0 °F 34.0 °F 27% 29.91 in - SSW 6.9 mph - N/A   Unknown
6:52 PM 66.0 °F 35.1 °F 32% 29.90 in - South 5.8 mph - N/A   Unknown
7:52 PM 64.0 °F 35.1 °F 34% 29.90 in - South 5.8 mph - N/A   Unknown
8:52 PM 62.1 °F 35.1 °F 37% 29.88 in - South 4.6 mph - N/A   Unknown
9:52 PM 59.0 °F 37.9 °F 46% 29.87 in - Calm Calm - N/A   Unknown
10:52 PM 60.1 °F 37.0 °F 42% 29.87 in - South 3.5 mph - N/A   Unknown
11:52 PM 55.9 °F 37.9 °F 51% 29.85 in - South 4.6 mph - N/A   Unknown